DW5542 Weather Reports


Display with metric or nautical units.
time (UTC)temp
F
wind
direction
speed
MPH
gust
MPH
rain 1hr
in
rain 24hr
in
rain mn
in
humidity
%
barometer
mb
20260903213022 79 111 0.0 0.0 0.00 0.00 0.00 87 1019.7
20260903211523 79 114 0.0 0.0 0.00 0.00 0.00 86 1019.7
20260903210023 79 115 0.0 0.0 0.00 0.00 0.00 87 1019.7
20260903204521 79 115 0.0 0.0 0.00 0.00 0.00 87 1019.8
20260903203032 80 110 0.0 0.0 0.00 0.00 0.00 86 1019.6
20260903201520 80 135 0.0 0.0 0.00 0.00 0.00 85 1019.7
20260903200020 80 158 0.0 0.0 0.00 0.00 0.00 85 1019.4
20260903194520 80 133 0.0 0.0 0.00 0.00 0.00 84 1019.2
20260903193018 80 111 0.0 0.0 0.00 0.00 0.00 84 1019.0
20260903191518 80 129 0.0 0.0 0.00 0.00 0.00 84 1018.8
20260903190017 80 145 0.0 0.0 0.00 0.00 0.00 83 1018.7
20260903184519 81 110 0.0 0.0 0.00 0.00 0.00 82 1018.5
20260903183015 81 148 0.0 0.0 0.00 0.00 0.00 81 1018.3
20260903181515 82 127 0.0 0.0 0.00 0.00 0.00 79 1018.3
20260903180015 82 134 0.0 0.0 0.00 0.00 0.00 79 1018.4
20260903174519 83 117 0.0 3.0 0.00 0.00 0.00 80 1018.2
20260903173013 83 136 0.0 1.0 0.00 0.00 0.00 76 1018.3
20260903171513 84 156 0.0 1.0 0.00 0.00 0.00 74 1018.2
20260903170016 84 142 0.0 1.0 0.00 0.00 0.00 72 1018.1
20260903164512 85 180 0.0 6.0 0.00 0.00 0.00 69 1018.1
20260903163011 84 159 0.0 5.0 0.00 0.00 0.00 70 1018.1
20260903161509 85 178 0.0 3.0 0.00 0.00 0.00 72 1018.1
20260903160027 85 172 0.0 3.0 0.00 0.00 0.00 71 1018.2
20260903154510 85 191 0.0 3.0 0.00 0.00 0.00 69 1018.3
20260903153007 86 204 0.0 10.0 0.00 0.00 0.00 68 1018.3
20260903151507 86 195 0.0 3.0 0.00 0.00 0.00 66 1018.4
20260903150018 86 170 0.0 3.0 0.00 0.00 0.00 63 1018.4
20260903144510 87 152 0.0 6.0 0.00 0.00 0.00 64 1018.5
20260903143009 86 200 0.0 4.0 0.00 0.00 0.00 63 1018.6
20260903141506 87 109 0.0 8.0 0.00 0.00 0.00 64 1018.7
20260903140002 87 135 0.0 1.0 0.00 0.00 0.00 63 1018.8
20260903134609 87 170 0.0 4.0 0.00 0.00 0.00 63 1018.9
20260903133106 88 184 0.0 1.0 0.00 0.00 0.00 60 1019.0
20260903131558 87 154 0.0 1.0 0.00 0.00 0.00 60 1019.1
20260903130057 87 197 0.0 8.0 0.00 0.00 0.00 63 1019.2
20260903124558 87 160 0.0 7.0 0.00 0.00 0.00 62 1019.3
20260903123052 87 149 0.0 7.0 0.00 0.00 0.00 61 1019.4
20260903121549 86 175 0.0 1.0 0.00 0.00 0.00 64 1019.5
20260903120101 86 160 0.0 1.0 0.00 0.00 0.00 68 1019.6
20260903114547 86 215 0.0 0.0 0.00 0.00 0.00 68 1019.7
20260903113044 85 131 0.0 6.0 0.00 0.00 0.00 68 1019.8
20260903111543 85 143 0.0 1.0 0.00 0.00 0.00 70 1019.9
20260903110043 85 143 0.0 3.0 0.00 0.00 0.00 72 1020.0
20260903104545 84 191 0.0 2.0 0.00 0.00 0.00 73 1020.2
20260903103037 84 192 0.0 1.0 0.00 0.00 0.00 74 1020.4
20260903101535 84 143 0.0 0.0 0.00 0.00 0.00 75 1020.3
20260903100034 83 252 0.0 0.0 0.00 0.00 0.00 76 1020.3
20260903094537 83 181 0.0 1.0 0.00 0.00 0.00 76 1020.2
20260903093040 83 228 0.0 4.0 0.00 0.00 0.00 77 1020.2
20260903091530 83 150 0.0 2.0 0.00 0.00 0.00 78 1020.3
20260903090032 82 226 0.0 0.0 0.00 0.00 0.00 79 1020.2
20260903084525 82 150 0.0 0.0 0.00 0.00 0.00 77 1020.1
20260903083024 82 163 0.0 0.0 0.00 0.00 0.00 79 1020.1
20260903081522 81 152 0.0 0.0 0.00 0.00 0.00 80 1020.1
20260903080027 81 152 0.0 0.0 0.00 0.00 0.00 82 1020.1
20260903074517 80 142 0.0 0.0 0.00 0.00 0.00 83 1020.0
20260903073025 79 147 0.0 0.0 0.00 0.00 0.00 85 1020.0
20260903071527 78 18 0.0 0.0 0.00 0.00 0.00 87 1020.0
20260903070010 76 18 0.0 0.0 0.00 0.00 0.00 88 1020.0
20260903064510 75 18 0.0 0.0 0.00 0.00 0.00 89 1019.9
20260903063006 74 18 0.0 0.0 0.00 0.00 0.00 90 1019.6
20260903061507 74 18 0.0 0.0 0.00 0.00 0.00 90 1019.6
20260903060008 74 19 0.0 0.0 0.00 0.00 0.00 1019.4
20260903054659 0 0.0 0.0 0.00 0.00 0.00 1019.1
20260903053054 0 0.0 0.0 0.00 0.00 0.00 1019.1
20260903051550 0 0.0 0.0 0.00 0.00 0.00 1019.0
20260903050045 0 0.0 0.0 0.00 0.00 0.00 1018.9
20260903044541 0 0.0 0.0 0.00 0.00 0.00 1018.9
20260903043036 0 0.0 0.0 0.00 0.00 0.00 1018.7
20260903041538 0 0.0 0.0 0.00 0.00 0.00 1018.6
20260903040028 0 0.0 0.0 0.00 0.00 0.00 1018.5
20260903034529 0 0.0 0.0 0.00 0.00 0.00 1018.6
20260903033035 0 0.0 0.0 0.00 0.00 0.00 1018.6
20260903031515 0 0.0 0.0 0.00 0.00 0.00 1018.6
20260903030011 0 0.0 0.0 0.00 0.00 0.00 1018.7
20260903024507 74 306 0.0 0.0 0.00 0.00 0.00 89 1018.7
20260903023007 75 307 0.0 0.0 0.00 0.00 0.00 90 1018.7
20260903021503 75 306 0.0 0.0 0.00 0.00 0.00 90 1018.7
20260903020002 76 307 0.0 0.0 0.00 0.00 0.00 90 1018.8
20260903014601 76 307 0.0 0.0 0.00 0.00 0.00 90 1018.7
20260903014500 76 307 0.0 0.0 0.00 0.00 0.00 90 1018.7
20260903013100 76 305 0.0 0.0 0.00 0.00 0.00 90 1018.7
20260903011600 76 305 0.0 0.0 0.00 0.00 0.00 90 1018.6
20260903010101 76 316 0.0 0.0 0.00 0.00 0.00 90 1018.6
20260903004558 77 315 0.0 0.0 0.00 0.00 0.00 90 1018.7
20260903003059 77 314 0.0 0.0 0.00 0.00 0.00 90 1018.8
20260903001551 77 315 0.0 0.0 0.00 0.00 0.00 89 1019.0
20260903000052 77 325 0.0 0.0 0.00 0.00 0.00 89 1019.0
20260902234600 77 329 0.0 0.0 0.00 0.00 0.00 89 1019.1
20260902233053 77 329 0.0 0.0 0.00 0.00 0.00 89 1018.9
20260902231549 77 328 0.0 0.0 0.00 0.00 0.00 89 1019.1
20260902230050 77 329 0.0 0.0 0.00 0.00 0.00 89 1019.1
20260902224553 77 340 0.0 0.0 0.00 0.00 0.00 88 1019.1
20260902223047 77 340 0.0 0.0 0.00 0.00 0.00 88 1019.1
20260902221544 78 188 0.0 0.0 0.00 0.00 0.00 88 1019.0
20260902220041 78 190 0.0 0.0 0.00 0.00 0.00 88 1019.1
20260902214541 78 190 0.0 0.0 0.00 0.00 0.00 88 1019.1